Theta_e
335 335 336 336 335 335 335 334 333 333 333 332 332 333 332 332 331 331 331 330 329 328 329 329 329 329 328 327 328 330 331 334 334 335 335 335 333 330 326 326 327 329 330 331 330 329 329 328 328 326 320 318 322 324 324 324 324 324 326 327 328 327 326 323 318 315 314 310 306 304 302 300 299 299 300 300 302 305 309 312 314 315 316 317 318
335 335 335 334 334 334 335 334 333 333 333 333 334 334 333 332 330 330 330 330 329 328 327 327 328 328 328 327 327 328 330 332 334 334 335 335 333 331 328 327 327 328 329 331 331 330 329 328 327 328 323 318 320 322 323 323 323 324 325 326 327 327 326 325 323 318 316 314 309 305 303 301 300 299 299 300 300 302 305 308 310 311 313 315 317
336 335 334 334 334 334 334 334 333 333 334 334 334 334 333 331 330 330 330 329 329 328 327 326 326 327 327 326 326 327 328 331 333 333 334 335 334 332 330 328 327 327 328 329 331 331 330 329 328 328 326 322 321 322 322 320 322 324 324 324 325 326 326 326 325 321 317 316 313 309 305 303 301 299 299 299 300 301 303 304 306 308 311 313 316
337 336 335 335 335 334 334 334 333 333 333 334 334 334 333 331 331 331 330 329 328 327 327 326 325 325 327 326 325 326 327 329 332 332 333 334 334 332 331 329 327 327 327 327 330 331 330 329 329 328 326 325 325 325 323 320 321 323 324 323 323 325 326 326 326 324 320 317 315 313 309 305 303 300 299 299 300 301 302 303 303 306 309 312 313
335 335 335 335 334 334 334 334 334 333 333 333 332 333 333 332 332 331 329 329 329 327 327 326 326 325 326 326 325 325 327 329 330 331 331 332 333 332 331 330 329 328 327 327 328 329 330 329 328 327 326 327 327 327 325 322 320 322 324 324 323 323 325 325 326 325 322 320 317 315 313 309 305 302 300 299 299 300 302 302 303 304 307 310 311
335 335 335 334 335 334 334 334 334 333 334 333 331 331 332 332 332 330 328 328 329 328 326 326 326 326 326 326 326 325 326 327 329 329 330 331 332 332 331 330 330 329 328 327 327 328 328 329 329 327 326 328 328 328 327 323 320 320 323 325 323 322 324 325 325 325 324 321 319 317 315 313 309 305 302 300 299 299 300 301 301 302 304 306 308
335 335 334 334 334 333 332 333 333 333 333 334 333 332 333 333 332 330 329 328 327 327 326 325 324 325 326 327 327 327 327 327 328 328 329 330 331 332 332 331 331 330 329 327 327 327 327 328 328 327 327 329 328 328 329 325 320 318 320 323 324 322 324 325 325 325 325 324 323 319 317 315 312 309 305 302 300 298 299 299 299 300 301 303 305
335 334 334 335 334 332 331 331 332 333 333 333 334 334 333 333 333 331 330 329 327 326 327 323 320 323 326 328 329 330 329 329 328 328 328 329 329 330 332 333 332 331 330 329 328 327 327 327 327 326 327 329 328 327 329 327 323 319 316 319 323 321 321 323 324 325 326 326 325 322 318 317 315 312 309 304 301 299 298 298 299 298 299 301 303
334 334 334 333 332 331 331 331 331 331 333 333 333 334 334 333 333 331 331 330 329 329 328 325 323 323 326 329 330 330 331 331 330 328 327 329 328 328 330 331 333 333 332 332 330 329 327 326 326 326 326 328 328 327 328 327 326 324 319 320 323 320 318 319 321 325 326 326 326 324 321 319 316 315 312 308 304 300 298 298 298 298 298 299 301
332 332 332 332 331 331 331 331 331 331 332 333 333 333 333 333 333 332 331 330 330 330 330 328 327 326 326 327 327 328 330 331 330 329 328 328 329 327 328 329 331 333 333 333 332 332 330 328 327 326 326 326 327 327 327 327 327 327 325 325 325 323 323 318 316 321 325 326 326 325 324 322 319 317 315 312 308 303 300 298 297 298 298 298 300
330 329 330 330 330 330 330 331 331 332 332 332 333 332 333 333 333 332 332 330 330 331 330 329 329 328 327 326 323 325 329 330 330 330 329 329 329 328 328 327 328 330 331 333 333 333 333 330 328 327 326 326 326 326 326 326 327 327 327 328 328 327 327 323 317 316 319 324 327 326 325 324 322 322 320 316 312 306 302 299 298 297 297 298 299
327 327 327 326 327 327 328 329 330 330 330 331 331 332 332 333 333 332 332 331 330 331 330 330 331 330 329 327 324 325 327 328 329 329 329 329 328 328 328 328 327 328 329 330 332 333 334 333 331 330 328 327 327 326 326 326 326 326 327 328 330 329 327 327 326 321 316 319 324 326 326 325 324 324 323 321 317 311 305 301 298 297 297 298 298
325 326 325 324 324 325 326 328 329 329 330 331 331 331 331 331 332 332 332 331 331 331 330 330 331 330 330 329 326 325 326 326 327 328 328 329 328 328 328 327 327 327 328 329 330 331 333 334 333 332 331 329 328 327 327 326 326 326 327 327 330 330 329 328 329 328 323 319 320 323 325 326 325 325 325 324 322 317 312 306 300 298 297 297 297
323 324 324 324 323 323 325 326 327 328 330 331 331 331 331 330 331 331 332 332 331 331 331 331 330 329 329 330 330 328 327 326 325 325 325 326 329 329 327 327 327 327 328 328 329 329 331 333 333 332 332 332 332 330 328 328 327 326 327 326 328 330 331 330 329 329 328 325 323 321 322 322 323 325 325 326 325 322 318 313 306 301 298 297 296
323 323 323 323 322 322 323 324 325 326 328 328 329 329 329 329 330 330 331 331 331 331 331 331 330 329 329 331 333 332 332 330 326 325 325 324 328 330 328 327 328 328 328 328 328 328 329 330 331 332 333 333 333 333 332 330 328 327 327 326 327 328 330 332 331 330 329 328 328 326 324 323 321 321 323 324 325 325 322 319 313 307 301 298 297
323 322 321 322 322 322 321 321 322 323 325 327 326 326 327 328 328 329 330 330 330 330 330 330 330 330 330 331 332 332 334 333 330 329 329 328 330 330 329 327 327 328 328 328 329 328 328 328 329 330 331 331 332 333 333 332 330 329 328 328 327 327 328 329 331 332 331 330 330 329 328 327 325 323 323 322 323 324 324 322 319 314 307 301 298
322 321 321 321 321 321 320 320 321 321 323 324 324 323 326 327 327 328 329 329 329 329 330 330 329 330 330 331 331 332 334 333 332 332 332 331 332 332 331 329 328 328 327 328 328 328 329 328 328 329 330 330 331 332 333 332 332 331 330 329 328 328 327 327 328 330 332 331 331 330 329 328 328 327 326 324 323 323 324 323 322 320 314 307 301
322 321 321 321 320 320 321 320 320 320 320 321 321 321 322 324 325 326 328 328 328 327 328 329 329 328 328 329 329 330 331 331 333 334 332 331 331 332 333 331 330 329 328 327 327 328 329 329 329 329 330 331 331 331 332 332 332 332 332 331 330 329 329 328 327 328 329 331 331 331 330 330 329 328 327 327 325 323 322 322 323 322 320 314 305
322 322 321 321 321 320 320 319 318 318 318 319 320 320 321 320 321 323 324 326 326 327 327 328 328 326 325 326 326 326 328 328 331 333 332 331 330 330 330 330 330 331 329 328 328 329 329 329 329 330 330 331 331 331 332 331 331 331 331 332 331 330 330 330 329 329 328 328 330 331 332 330 330 329 328 327 327 325 323 322 322 322 322 319 313
322 321 321 320 320 319 318 317 317 317 316 317 317 318 319 320 320 321 321 322 323 324 326 326 326 326 326 326 325 324 325 327 328 328 331 332 331 331 330 328 328 329 329 329 328 329 329 328 328 329 330 331 331 331 331 331 331 330 330 331 331 331 331 331 330 330 329 329 328 330 332 332 331 330 330 329 328 327 325 322 321 322 322 321 319
320 320 319 318 317 317 316 316 315 315 315 315 316 316 318 318 319 320 320 320 321 322 322 322 322 324 324 325 326 326 325 326 327 325 328 332 333 332 330 328 328 328 328 328 328 328 328 328 329 329 330 330 329 329 330 331 331 330 330 331 330 331 331 331 330 330 330 330 329 328 330 332 332 331 331 330 330 329 327 325 322 322 322 321 320
318 318 318 317 316 316 316 315 316 316 316 316 316 316 316 317 317 318 319 318 318 319 319 319 319 319 320 321 322 324 325 327 327 325 326 329 330 331 329 329 330 328 325 325 326 327 326 326 327 327 329 329 329 328 328 329 329 329 329 330 331 331 332 332 330 330 330 330 330 330 330 331 332 332 331 331 331 330 329 328 325 323 323 322 321
318 318 318 317 317 317 316 316 317 317 317 317 317 317 317 317 318 317 318 318 318 318 317 318 317 316 317 317 317 318 320 322 322 322 323 324 325 326 324 326 329 327 324 322 320 322 321 319 318 318 320 325 327 327 325 326 328 329 330 330 330 331 332 332 331 331 331 329 329 330 329 330 331 331 331 331 331 330 330 329 328 326 324 323 323
317 318 318 318 317 317 317 316 316 316 317 317 317 318 318 318 318 318 318 317 318 317 317 317 317 316 315 316 316 316 316 316 317 316 317 318 320 321 319 319 322 322 323 323 320 319 319 317 315 313 315 319 322 323 323 325 329 330 330 330 330 331 331 331 331 330 330 329 328 328 328 328 329 330 332 331 331 330 330 330 329 327 326 325 324
318 318 318 319 318 318 318 317 316 315 315 316 316 317 317 316 317 317 316 316 316 316 316 316 317 317 316 315 316 316 314 314 315 315 314 315 316 318 316 316 317 317 318 321 319 318 319 318 318 318 318 319 320 322 323 325 328 328 329 330 329 330 330 330 329 328 328 328 327 327 326 326 327 327 329 331 331 331 330 331 330 328 327 326 325
318 319 318 319 319 319 319 318 316 315 315 315 316 317 317 317 317 317 316 317 317 316 316 316 315 316 316 314 314 314 313 314 315 314 315 315 314 315 315 314 316 315 315 316 316 318 320 318 318 320 320 320 320 321 323 325 328 327 327 328 327 327 327 327 326 326 326 327 327 327 326 326 326 326 327 329 331 331 330 331 330 330 329 328 327
319 319 318 318 319 319 319 318 317 316 316 315 316 316 317 317 316 317 317 316 316 315 315 315 315 315 315 315 314 312 312 313 313 313 314 314 314 314 315 316 317 316 315 314 314 316 317 317 318 319 319 320 320 321 323 326 327 326 326 326 325 325 325 325 325 326 327 327 326 327 326 326 326 325 326 326 328 329 330 330 329 330 330 329 329
319 320 319 318 319 320 319 319 317 317 316 316 317 316 316 317 316 316 316 315 316 317 316 315 315 315 313 315 315 312 311 313 312 312 313 313 313 315 315 315 316 316 316 316 316 316 315 314 316 316 316 317 318 320 323 326 327 326 325 324 323 323 323 324 326 327 326 326 326 327 327 326 326 326 326 325 326 327 329 330 329 329 330 329 329
320 320 320 318 319 320 320 319 318 317 316 316 317 316 315 317 317 315 316 316 317 317 316 316 316 315 314 314 316 312 310 313 312 311 312 312 313 314 314 314 315 316 317 317 317 315 314 313 314 314 315 315 315 316 317 320 323 322 321 321 321 321 322 324 325 325 324 323 324 324 325 326 326 326 326 325 325 325 326 328 329 329 330 330 329
320 320 320 319 319 320 320 320 319 318 317 316 317 316 314 317 317 316 317 317 316 315 315 316 316 315 314 313 315 314 311 312 313 312 312 312 312 312 312 312 313 315 316 317 317 315 313 313 313 313 313 313 313 313 313 315 316 316 316 316 317 318 318 319 319 320 320 320 321 320 321 322 323 325 325 325 325 326 325 326 327 328 329 329 329
319 320 321 320 320 320 320 320 320 319 318 316 317 315 314 316 315 315 317 315 315 316 315 315 314 315 314 312 313 314 311 311 312 313 313 312 311 311 310 310 311 312 313 315 317 315 313 313 313 313 313 312 312 312 311 311 313 313 314 314 315 315 316 316 316 317 317 317 317 317 317 316 318 320 323 323 324 325 325 325 325 326 327 327 328
319 320 321 321 320 320 320 320 320 320 318 317 317 315 315 316 314 315 316 314 315 317 315 313 314 314 314 313 312 311 309 309 311 311 311 311 312 311 311 311 311 311 311 312 314 314 312 312 312 312 312 312 312 311 312 312 312 312 312 313 314 315 315 315 315 316 316 316 316 315 315 314 314 316 318 320 321 324 325 325 326 325 325 326 326
320 320 321 321 321 321 321 320 320 321 319 318 317 316 315 316 314 314 315 314 314 316 315 314 314 313 313 313 312 311 310 310 310 310 309 310 310 311 311 312 311 311 311 311 312 313 311 311 311 311 311 310 311 311 312 312 312 312 312 312 313 313 313 313 313 314 315 315 315 314 314 314 315 317 319 319 320 322 324 325 325 325 325 325 325
320 320 321 322 322 321 321 321 320 320 321 319 317 317 316 316 315 315 316 315 314 314 315 314 313 313 313 311 311 312 311 309 309 309 309 308 308 309 310 310 310 310 310 310 311 311 311 311 311 310 310 310 310 311 311 312 312 312 311 311 311 312 312 311 311 312 312 312 313 313 313 313 314 317 319 321 321 321 322 324 325 325 325 325 325
321 321 321 321 322 321 320 321 320 321 321 320 318 317 316 316 316 316 316 316 314 313 315 315 313 313 312 310 310 311 311 310 310 310 309 308 309 309 309 309 308 308 309 309 310 311 311 312 311 312 311 311 311 310 310 310 311 311 310 310 311 311 311 311 311 311 311 312 312 313 313 314 315 316 319 320 320 319 318 319 320 322 324 324 324
321 322 322 321 321 321 321 321 321 321 321 320 319 318 317 317 316 317 317 316 315 314 315 315 314 313 313 311 311 312 311 311 310 310 309 310 310 309 308 308 307 307 308 308 309 310 311 311 311 311 311 311 310 310 310 310 310 311 310 310 310 310 311 311 311 311 311 311 311 311 311 313 314 317 318 319 320 319 317 316 317 318 319 321 323
321 322 322 322 321 321 321 320 321 321 321 321 320 319 318 317 317 316 317 316 315 314 315 314 313 313 313 312 312 312 311 310 310 309 309 309 309 308 308 307 307 307 307 306 307 307 308 309 308 308 308 309 309 309 310 310 310 310 310 310 310 310 310 310 310 310 310 311 311 311 311 312 313 315 315 316 316 316 316 316 315 315 315 316 319
322 322 323 322 322 321 321 321 321 321 320 320 320 320 319 318 317 316 316 316 315 314 315 314 313 312 312 312 311 311 310 309 309 309 309 308 308 307 307 307 307 307 307 307 307 307 308 308 308 308 308 308 308 309 309 309 309 309 310 310 310 310 310 310 310 310 311 312 313 314 314 314 313 313 314 314 315 315 315 316 316 316 315 315 315
322 322 322 321 321 320 320 320 321 320 321 321 320 320 319 318 318 317 317 316 316 315 314 314 313 312 311 311 311 310 309 309 308 308 308 307 307 306 306 305 305 305 305 305 306 306 307 307 308 308 308 308 308 308 308 308 308 309 309 309 310 310 310 311 312 312 312 313 313 313 312 310 309 309 310 312 314 315 315 315 316 316 316 315 314
322 322 322 321 320 320 320 321 320 321 321 321 320 320 320 319 318 317 317 316 316 315 314 314 313 311 311 310 310 309 308 308 307 307 307 306 304 302 300 300 300 300 301 302 302 304 304 305 306 307 307 307 307 307 308 308 308 309 309 309 309 310 310 310 311 311 310 310 310 309 309 308 308 308 309 310 312 313 313 314 315 317 317 316 315
322 322 322 322 322 321 321 321 321 321 320 320 320 320 320 319 318 318 317 316 316 315 314 313 312 311 310 309 308 307 307 306 306 306 305 303 300 298 297 295 296 298 300 300 302 303 303 304 304 305 306 306 306 307 307 307 308 308 308 308 308 308 308 309 309 308 308 309 309 310 310 309 310 311 311 311 311 312 313 315 316 317 317 317 317
322 322 322 322 322 321 321 322 321 321 320 320 320 320 320 319 318 318 317 317 316 315 314 312 311 310 310 308 307 306 306 305 305 304 303 302 300 299 298 297 296 297 298 298 299 300 301 302 302 303 303 304 304 305 305 305 306 306 307 307 308 308 308 308 308 308 308 309 309 310 310 310 311 311 312 312 313 313 314 316 317 317 317 316 317
321 321 321 321 321 321 321 322 321 321 320 321 320 320 320 319 318 318 318 317 316 315 313 312 311 310 308 307 306 306 306 305 304 303 303 302 301 300 299 299 298 298 298 298 298 298 299 299 300 300 301 302 302 303 303 304 304 305 306 306 307 308 308 308 308 308 308 309 308 308 308 308 309 310 310 311 312 313 313 314 315 317 318 318 318
319 320 321 321 321 322 322 322 322 322 321 321 320 320 319 318 318 318 317 316 315 314 313 312 310 309 307 306 306 306 305 304 304 303 303 302 301 301 301 301 301 301 300 300 300 299 299 299 299 299 299 300 300 301 301 302 302 303 303 303 304 306 307 307 307 307 307 307 307 307 307 307 308 308 309 309 309 310 310 310 311 313 316 317 319
317 318 320 320 320 321 321 321 321 321 321 321 321 320 320 318 317 317 315 315 314 313 311 310 308 307 306 306 305 305 304 304 303 302 302 302 302 302 303 303 302 302 302 301 301 301 300 299 299 299 300 300 300 300 300 301 301 301 301 302 303 303 304 304 305 305 305 305 305 305 305 306 306 307 307 307 307 308 308 308 309 310 311 313 315
314 315 317 318 318 319 319 319 320 320 321 321 321 320 319 318 316 315 314 313 312 311 309 308 307 306 305 305 305 304 303 303 302 301 302 302 303 303 303 302 302 302 302 302 302 301 301 301 300 300 300 300 300 300 300 301 301 301 301 300 300 300 300 301 301 302 303 303 303 303 304 304 304 304 305 304 305 305 305 306 307 308 309 310 311
312 313 314 315 316 317 318 319 319 319 319 320 320 319 318 317 316 315 313 311 310 308 307 306 306 305 305 304 304 303 303 302 302 301 301 301 302 301 301 300 300 300 300 300 300 300 301 301 301 301 301 301 301 300 301 301 301 301 300 299 298 298 298 299 299 300 301 301 302 302 303 303 303 303 304 304 304 304 305 306 306 307 308 309 310
312 312 313 313 314 315 316 317 318 318 318 319 319 318 317 316 314 312 310 308 307 306 305 305 304 304 304 304 303 303 302 302 302 302 301 301 301 300 299 298 298 299 299 299 299 299 299 299 300 300 300 300 300 300 300 300 299 299 298 297 297 297 297 297 298 299 300 300 301 301 302 302 302 303 303 304 304 305 305 306 306 306 306 307 308
313 313 312 312 313 314 314 316 317 317 316 317 317 316 314 313 311 309 307 306 305 304 304 304 304 304 303 303 303 302 302 302 302 301 301 300 299 298 298 298 298 298 298 298 298 298 298 298 298 298 298 298 298 298 298 298 297 297 297 296 296 296 296 297 298 299 299 300 300 301 301 302 302 303 303 304 304 304 305 305 306 306 307 308 308
312 313 313 313 313 313 314 315 315 315 315 314 313 312 311 310 308 307 306 305 304 304 304 304 303 303 302 302 301 301 301 301 301 300 300 299 298 298 298 298 297 297 297 297 297 297 296 297 297 297 297 297 297 297 297 297 297 297 296 296 295 296 296 296 297 298 298 299 299 299 300 300 301 301 302 303 304 304 305 305 306 307 308 308 309
312 312 313 312 312 313 313 313 313 313 313 311 309 309 308 307 306 304 304 304 303 302 301 301 300 300 300 300 299 299 299 299 299 299 298 298 297 297 296 296 296 296 296 296 296 295 295 295 295 295 295 295 295 295 295 296 296 296 297 296 296 296 296 296 297 297 298 298 299 299 299 300 300 300 301 302 303 304 305 305 306 308 309 311 312
Wind_Speed
9 8 9 11 14 14 14 12 9 11 11 10 11 8 8 10 10 9 9 9 9 9 10 8 7 9 8 7 6 7 9 9 9 9 9 8 8 6 4 4 8 11 12 12 9 9 8 7 7 6 4 6 7 7 6 6 6 6 5 5 4 2 1 1 3 4 6 7 7 8 8 8 8 8 8 8 8 8 9 9 10 11 12 13 13
8 9 9 9 12 12 11 10 9 9 8 9 9 6 5 8 9 8 8 10 11 9 10 11 10 12 11 9 8 8 9 11 11 10 9 8 8 8 6 4 6 9 11 13 11 10 10 8 8 7 4 4 6 7 7 7 6 7 6 5 6 4 3 1 1 2 4 5 6 7 7 8 8 7 8 7 7 7 7 7 8 9 11 12 13
7 8 8 8 11 12 9 8 7 7 6 7 8 6 5 6 8 9 6 9 12 8 7 11 12 12 14 11 9 9 10 11 12 11 11 11 9 9 7 5 5 7 9 11 13 11 10 9 8 8 6 4 5 6 6 7 7 7 6 6 7 6 4 3 1 1 2 3 5 5 6 7 7 7 7 7 7 6 7 7 7 8 9 10 11
7 6 5 6 8 9 8 6 6 5 4 4 4 5 6 8 9 9 7 8 11 8 5 7 11 12 11 11 11 11 11 10 11 12 13 13 12 10 9 8 6 7 8 9 12 12 10 10 9 9 7 6 6 5 5 6 7 7 7 6 7 7 5 4 3 1 0 1 3 4 5 6 6 6 6 6 6 6 6 6 7 7 8 9 10
7 7 5 4 5 5 6 5 5 4 4 4 4 4 7 11 10 8 7 7 10 11 8 4 6 11 13 9 11 12 11 10 10 11 13 14 13 11 10 10 9 8 8 8 10 12 11 10 10 9 8 7 7 6 5 5 7 7 8 6 7 7 6 5 5 3 1 1 2 3 4 5 5 5 5 5 5 5 5 5 6 6 6 7 7
7 8 7 7 6 6 6 6 7 6 7 7 7 9 11 12 11 9 8 8 10 12 12 8 5 8 12 12 9 10 12 12 13 12 11 12 13 13 13 11 12 11 9 9 9 11 11 11 11 9 8 8 8 8 7 6 6 7 8 7 6 7 8 6 6 5 2 2 1 2 2 4 4 4 4 4 4 4 4 4 4 5 5 5 6
7 7 7 9 8 6 6 7 9 9 8 9 9 10 12 11 11 12 10 10 10 10 13 12 10 11 12 12 9 7 9 9 13 15 12 12 11 12 14 13 12 12 12 11 10 11 11 12 11 10 9 10 9 9 9 7 6 6 7 8 7 8 9 8 7 6 4 2 2 2 2 2 3 4 4 3 3 3 3 3 3 3 4 4 5
5 6 7 7 6 6 6 7 9 9 8 9 8 8 11 12 12 12 10 10 10 9 9 7 9 13 12 11 7 8 9 7 5 10 10 12 13 11 11 12 12 12 12 12 12 11 12 12 11 10 10 11 10 9 10 9 7 5 6 7 7 7 9 10 9 7 6 5 4 3 3 3 3 3 3 3 2 2 2 2 3 3 3 3 4
3 4 6 6 4 5 6 6 8 9 9 9 8 8 9 11 11 12 10 10 11 6 2 1 3 8 11 9 6 9 9 9 8 7 7 7 11 13 12 11 11 12 11 11 11 12 12 12 12 11 10 11 11 9 10 9 8 8 6 6 6 4 6 10 11 9 8 8 6 4 4 4 4 3 2 2 2 2 2 2 2 3 3 3 3
2 1 2 2 2 3 4 5 6 7 8 9 8 7 8 8 10 12 11 11 11 6 1 2 2 5 10 9 7 10 10 10 10 9 9 8 8 10 12 12 12 12 12 11 10 12 13 13 12 12 12 11 11 10 10 9 10 10 8 7 7 5 3 6 10 11 10 9 8 6 5 5 4 3 2 2 2 2 2 3 3 3 3 3 3
3 3 3 3 1 1 2 1 2 3 6 7 6 6 6 6 7 9 11 11 11 8 3 4 3 2 4 6 8 11 12 10 10 10 10 11 12 9 8 10 12 12 12 12 12 13 13 14 14 14 13 13 12 11 11 10 10 10 9 10 10 8 5 4 6 10 11 10 10 9 7 6 4 2 2 3 3 3 3 3 4 4 4 4 4
5 5 5 4 3 4 5 5 3 2 3 4 4 4 5 5 6 7 8 9 9 7 4 4 4 5 4 2 6 9 10 11 10 10 10 10 11 11 10 9 10 12 13 13 13 14 14 14 15 15 14 14 13 13 13 12 11 10 10 11 11 11 9 6 5 7 10 11 10 10 10 9 7 5 4 4 4 4 4 4 4 5 5 5 5
5 5 5 4 4 5 6 6 5 4 2 1 1 2 3 4 5 6 6 6 6 5 4 4 3 3 4 2 6 10 11 12 12 11 10 11 11 11 11 10 10 9 11 13 13 13 13 13 14 14 15 15 14 14 15 14 13 12 11 11 12 13 13 11 9 8 8 9 9 10 12 12 10 8 7 6 5 5 5 5 5 6 6 5 6
6 6 6 6 6 7 8 8 6 7 7 3 2 1 2 3 3 3 4 4 4 3 4 4 3 3 3 1 4 7 10 12 14 13 12 12 11 11 10 9 9 8 6 9 12 12 13 13 12 13 13 14 15 15 16 16 15 14 14 13 13 15 15 15 14 11 9 8 8 9 11 12 12 10 9 8 7 6 6 6 6 7 7 6 6
6 7 9 9 8 8 7 8 7 6 7 6 5 5 3 1 1 2 2 2 2 3 4 4 4 4 3 1 0 2 4 6 9 10 10 11 11 10 10 8 7 8 7 7 9 10 11 12 13 13 14 15 16 17 17 18 17 16 16 15 14 15 16 16 16 15 12 11 10 10 10 11 11 10 10 10 10 9 8 8 8 8 8 8 7
7 9 11 8 8 10 6 5 7 6 4 5 7 7 6 6 5 2 2 2 1 1 3 4 5 4 2 1 1 1 1 2 3 5 6 8 9 7 8 8 8 9 8 6 5 6 7 8 10 11 12 13 14 13 15 17 16 16 16 16 16 16 16 17 17 16 15 15 15 14 13 12 11 10 9 11 12 12 10 9 9 9 9 9 8
9 11 11 7 6 8 6 4 6 6 7 7 7 7 5 5 7 7 5 5 5 2 1 1 4 7 4 2 2 1 1 1 1 3 4 5 4 1 2 3 6 8 8 8 7 6 5 5 6 6 6 7 7 7 9 12 14 15 15 16 17 17 17 17 18 17 17 17 18 18 16 15 14 12 11 11 12 13 13 12 11 10 11 10 10
10 10 11 9 7 7 8 9 7 5 8 9 8 9 8 6 8 10 7 6 7 6 5 4 3 6 6 3 1 1 1 0 0 1 2 3 3 2 1 0 3 6 6 8 9 7 6 6 6 6 5 5 6 6 8 10 11 13 14 14 15 16 17 18 19 19 19 19 19 19 19 18 16 15 14 13 13 14 14 14 13 12 12 12 11
10 9 9 9 9 8 8 9 8 6 7 8 8 10 9 7 9 11 8 7 8 7 7 7 5 3 3 2 1 2 3 1 1 1 1 2 2 1 1 2 3 4 5 6 8 8 6 6 6 7 6 6 8 9 9 9 9 11 12 13 14 15 15 16 17 19 20 21 21 20 20 19 18 17 16 15 15 15 15 15 14 14 13 13 13
8 8 9 9 9 8 7 7 8 9 9 8 7 8 8 8 9 9 9 9 9 8 6 6 6 5 4 4 2 2 5 3 2 3 1 2 2 3 3 2 3 5 6 7 8 9 8 6 5 7 7 6 7 8 8 8 9 10 10 11 13 14 14 15 16 17 18 20 22 22 20 20 19 19 18 17 17 17 16 16 15 15 14 14 14
9 8 9 9 8 8 8 8 10 11 10 9 8 7 8 8 8 9 9 9 9 9 9 9 8 6 3 3 4 4 8 5 3 4 3 2 1 2 2 3 3 5 6 6 8 9 8 8 8 8 9 9 9 10 10 9 9 10 11 11 12 13 14 15 16 17 17 18 21 22 22 20 19 19 19 18 18 18 18 17 16 16 16 15 15
9 8 8 8 8 8 8 8 9 10 10 8 8 8 8 9 9 9 9 8 8 9 10 11 9 6 7 5 3 2 4 3 2 3 2 2 2 3 5 4 4 5 6 7 8 9 9 10 12 12 13 14 14 13 12 11 10 12 14 14 12 12 12 14 15 15 16 17 19 21 22 22 21 21 21 21 19 19 18 18 18 17 17 16 16
8 8 8 8 7 7 7 8 8 8 8 7 7 7 8 8 9 9 9 9 9 9 8 9 8 6 8 9 9 7 6 6 5 4 4 2 1 3 5 5 7 7 5 5 6 8 10 11 13 14 15 16 16 15 14 12 10 12 15 14 13 12 12 12 12 13 13 15 16 19 21 23 23 23 23 23 23 21 20 21 20 19 18 18 17
7 8 7 7 6 7 7 6 7 7 7 6 6 7 7 7 7 8 8 8 8 8 7 8 8 8 8 8 8 8 9 10 9 9 9 8 6 4 7 8 5 5 4 3 5 7 8 8 8 10 11 12 13 14 13 10 9 12 13 12 12 12 12 11 12 14 15 16 16 18 20 22 24 25 25 24 25 24 22 22 22 20 19 19 19
8 8 8 7 6 6 6 5 5 6 6 6 6 6 6 7 7 7 7 8 8 8 8 8 8 8 7 7 8 9 9 9 8 8 7 7 8 5 9 12 8 8 8 5 8 9 9 8 5 5 8 9 9 10 10 10 11 11 11 8 8 10 11 12 14 15 16 17 17 18 19 21 24 27 27 26 25 26 25 24 23 22 21 21 20
9 9 9 8 7 6 6 5 5 5 5 6 6 6 6 6 7 7 6 7 7 7 7 7 7 7 7 7 7 7 7 7 7 7 6 7 8 8 8 10 9 10 10 10 10 9 8 8 6 4 7 8 8 8 10 12 12 11 11 10 10 11 12 14 14 14 13 14 16 17 19 20 22 25 28 28 27 27 27 27 26 25 24 24 23
10 10 9 9 8 7 7 6 6 5 5 5 5 6 7 6 6 6 6 6 6 6 7 7 7 7 7 7 6 6 5 6 6 7 7 7 6 6 6 5 7 7 7 11 12 6 4 4 6 4 3 6 7 7 8 12 12 9 8 8 8 9 10 12 13 13 14 14 15 16 18 19 20 22 25 29 30 30 29 29 29 28 27 27 26
11 11 11 10 9 9 8 7 7 6 5 5 5 5 6 5 5 6 5 5 5 5 5 6 6 6 6 7 6 5 5 5 5 5 6 5 5 5 4 3 3 4 4 7 9 10 16 15 6 6 10 9 6 5 3 4 7 4 3 5 6 8 10 11 12 12 14 15 15 16 17 18 20 20 22 25 29 31 32 31 30 30 30 30 29
11 13 12 11 11 10 10 10 9 8 7 7 6 6 6 6 5 5 5 5 5 4 4 4 5 5 5 6 5 4 5 5 4 5 5 5 6 5 6 4 2 2 3 4 5 7 14 17 14 14 17 15 12 11 9 5 3 4 6 7 8 8 11 12 12 13 15 17 17 18 19 19 19 20 21 22 24 28 32 33 34 33 32 32 32
9 12 13 12 12 12 11 11 11 11 10 9 8 7 7 7 6 6 7 6 5 4 5 4 4 4 3 4 5 3 4 4 3 5 5 6 6 5 6 6 5 4 4 3 4 7 12 16 15 15 18 18 15 13 11 9 10 11 11 13 13 13 15 15 16 17 18 19 19 21 22 22 21 20 20 21 22 25 28 31 34 35 36 35 34
10 12 13 13 13 14 13 13 13 12 12 10 10 9 8 8 8 7 8 8 6 6 5 4 4 4 3 4 4 3 2 3 3 3 4 4 4 5 5 6 6 6 6 4 3 6 11 15 15 16 17 17 17 17 15 14 13 13 14 14 15 15 16 18 19 20 21 21 22 23 24 24 24 22 21 21 21 23 25 27 29 32 35 37 38
12 13 14 14 15 15 15 14 14 14 14 12 12 11 10 10 9 9 10 9 9 9 7 6 5 5 4 3 3 1 2 3 3 2 3 3 3 4 3 3 3 3 5 6 4 7 12 14 15 15 15 16 17 16 16 15 14 14 15 15 15 15 16 18 20 20 21 21 22 22 22 22 23 23 23 22 21 22 23 26 27 29 31 35 38
13 14 15 15 15 16 16 16 15 15 15 14 14 13 12 12 11 11 11 10 10 10 10 8 7 6 5 4 4 3 1 3 2 2 3 3 4 5 4 2 3 3 4 6 6 8 12 14 14 15 15 15 16 15 15 17 17 16 17 17 16 17 17 18 19 19 19 20 21 21 21 21 21 22 22 22 22 22 23 25 26 27 28 30 34
14 14 15 15 16 17 17 16 16 16 15 15 15 15 14 14 14 13 13 13 12 11 12 11 10 9 8 6 5 5 3 1 1 2 3 3 4 5 5 4 5 6 5 8 9 10 12 15 16 16 16 16 16 15 15 16 17 17 17 18 17 18 18 18 19 19 19 19 19 20 21 22 23 23 23 22 22 23 24 25 26 26 27 28 30
15 16 17 17 18 18 18 18 17 16 16 15 16 16 16 15 15 15 14 14 14 13 14 13 12 12 11 9 7 6 5 3 2 1 2 2 2 4 5 5 6 8 8 9 10 11 13 16 16 16 16 15 16 17 16 17 18 18 19 19 18 18 18 18 18 18 18 18 18 18 18 19 20 22 24 24 23 23 24 25 26 27 27 28 30
18 18 18 19 19 19 20 19 18 18 18 17 17 18 17 16 16 15 15 15 15 14 14 14 13 13 13 10 8 8 7 5 4 3 2 2 2 3 5 6 7 8 8 8 9 11 13 15 15 16 16 17 18 19 18 18 18 17 18 18 18 18 18 18 18 18 19 20 21 20 19 18 18 21 23 24 25 25 25 26 27 28 28 29 30
19 20 20 21 20 20 20 20 20 20 19 19 19 19 18 16 16 16 16 16 15 15 15 14 13 12 13 11 9 8 8 7 5 4 4 3 3 3 4 6 7 8 9 9 10 12 14 16 18 18 18 19 19 19 18 18 19 19 18 18 18 18 18 18 19 20 21 21 21 20 18 17 17 19 22 24 25 27 27 28 28 29 30 30 30
18 19 19 17 16 17 17 17 19 20 21 20 20 19 18 17 17 16 16 16 15 15 15 14 13 13 12 11 10 9 8 7 6 5 5 4 3 4 5 6 7 9 10 11 12 13 15 17 18 19 20 20 20 20 19 18 19 20 19 18 18 18 19 20 20 19 18 18 17 16 15 16 18 20 22 23 25 26 27 27 28 29 30 31 31
20 19 18 15 15 17 18 18 20 22 21 19 18 18 19 18 17 17 16 16 15 15 15 14 13 13 12 11 10 9 9 8 7 6 5 5 4 4 5 6 7 9 10 11 12 13 15 16 17 18 18 19 19 20 19 17 19 20 19 20 20 19 18 17 16 16 16 17 19 20 21 23 24 25 25 26 26 27 28 28 29 29 29 30 29
23 22 21 20 19 19 21 23 23 21 19 17 17 19 19 19 19 18 18 17 16 15 14 14 13 12 12 11 10 9 9 9 8 8 7 7 6 7 9 9 9 10 11 12 13 13 15 16 17 17 18 18 19 19 18 17 17 17 16 17 18 18 17 17 19 20 21 23 24 25 24 24 24 24 25 26 26 27 28 29 29 29 29 30 30
21 21 22 22 21 21 23 24 23 19 17 18 22 22 21 19 19 18 18 18 16 15 14 13 13 12 11 11 10 9 10 10 11 11 10 9 10 11 11 11 11 10 11 12 12 13 14 15 16 16 16 17 17 17 17 16 15 17 18 19 20 21 22 23 24 24 23 23 25 25 23 22 22 22 23 23 24 25 26 27 28 28 28 29 29
16 18 20 21 21 21 22 23 22 19 18 21 26 27 24 20 18 18 19 19 17 14 14 13 12 12 11 10 10 11 12 13 13 13 12 12 11 11 10 10 11 11 12 13 13 14 14 15 15 16 16 16 17 17 18 18 19 20 20 20 20 21 21 21 21 21 20 20 21 22 21 19 20 21 21 20 20 21 22 24 25 27 28 28 27
12 14 16 17 19 20 20 21 21 20 21 23 25 27 26 22 19 18 18 18 16 14 14 14 13 12 11 10 10 11 12 12 12 11 10 10 10 11 12 12 12 12 13 14 15 15 15 15 16 16 16 17 18 18 18 19 19 19 19 19 19 19 18 15 14 15 15 15 19 22 22 21 21 24 25 24 22 22 23 25 24 24 26 27 28
11 12 13 14 16 17 18 19 20 21 23 24 23 24 24 22 20 18 16 16 16 14 14 13 12 12 11 10 10 10 9 9 9 9 9 11 12 14 14 14 13 13 14 15 16 17 17 17 17 17 17 19 20 20 21 20 20 21 22 22 20 20 19 16 15 15 15 15 20 24 24 22 20 22 26 26 25 25 26 27 27 26 25 25 26
11 13 15 15 16 17 17 18 19 19 20 23 22 22 25 23 19 17 15 13 14 14 13 13 12 11 10 10 10 9 8 8 9 10 10 11 12 12 12 12 13 14 15 16 18 20 21 21 20 19 18 19 20 21 21 21 22 23 21 20 18 19 20 19 19 21 20 18 21 25 24 22 21 23 27 26 26 27 27 28 28 29 29 29 27
12 13 14 16 17 17 18 18 19 17 17 18 18 21 26 24 18 17 15 12 13 14 12 12 12 11 10 9 8 8 8 9 9 9 9 9 9 9 9 10 12 13 14 16 17 19 22 24 25 25 23 22 22 23 23 22 22 20 17 17 18 20 22 23 25 28 28 26 26 26 25 24 23 26 30 30 28 29 29 29 28 28 29 31 31
13 13 14 14 15 17 18 19 19 18 17 16 16 19 23 22 19 19 17 14 15 13 12 12 12 11 10 8 8 9 9 10 11 11 11 11 12 12 13 13 14 15 16 17 18 19 20 22 24 25 25 24 24 24 23 22 22 22 22 23 23 24 26 28 30 30 29 28 26 24 24 24 23 26 30 29 28 29 29 28 28 28 28 29 30
13 14 15 16 16 16 17 18 18 17 14 14 17 19 20 20 20 19 17 17 16 14 11 11 10 9 8 8 9 10 10 11 12 12 12 13 15 16 16 16 16 17 18 17 18 18 19 21 22 23 24 24 24 25 25 25 27 28 30 30 28 26 27 27 27 27 26 24 22 23 26 26 23 26 30 28 27 29 29 28 29 29 29 29 29
13 14 15 16 17 17 17 16 16 15 12 12 15 17 18 20 20 17 14 14 14 11 8 8 8 8 8 9 10 10 10 11 13 14 14 16 18 18 17 17 17 17 17 17 17 18 19 20 21 22 23 24 25 26 28 29 30 30 29 27 24 23 23 21 20 23 25 23 20 20 25 25 22 24 28 27 26 28 28 29 30 28 28 29 29
14 14 15 16 16 15 14 13 13 13 12 12 14 17 19 20 19 15 11 10 8 6 6 6 7 7 8 9 10 10 11 13 15 17 17 17 17 15 15 15 16 17 17 18 18 18 18 18 20 21 22 22 22 22 22 24 25 27 29 29 25 22 21 20 19 22 24 24 21 20 23 26 24 25 27 25 25 27 27 27 27 27 27 28 28
13 14 14 13 9 5 4 7 9 10 11 14 17 19 19 18 16 13 10 8 5 3 3 3 3 4 5 7 8 10 12 15 17 16 16 14 13 12 13 14 15 17 18 17 17 18 20 22 23 24 24 25 25 25 24 23 22 22 25 28 27 24 22 21 21 19 17 17 17 17 21 23 22 22 23 18 15 17 20 22 23 25 26 26 24
Wind_Direction
187 186 190 200 214 218 214 220 223 217 222 227 227 229 229 231 232 229 232 236 233 227 222 224 238 237 240 254 238 212 200 195 199 187 183 187 172 164 155 153 166 164 163 167 172 178 181 181 182 191 199 184 181 183 181 181 173 161 152 152 169 209 242 142 110 101 99 100 101 101 102 98 95 93 90 89 89 91 95 97 96 97 99 97 93
195 195 199 209 224 231 225 225 224 215 217 228 230 228 243 238 237 245 240 240 244 239 220 214 229 229 219 237 249 235 215 199 196 194 187 187 180 171 168 155 160 168 169 172 175 177 180 183 184 192 207 190 182 186 187 191 184 170 167 168 173 189 225 216 129 111 101 97 99 100 102 102 98 98 96 93 92 92 94 97 96 97 101 100 97
197 198 201 207 218 224 224 223 219 219 220 231 233 232 262 262 255 256 244 247 254 260 244 225 232 229 212 215 233 243 232 201 192 200 191 186 189 183 180 172 164 170 173 177 179 179 183 183 178 189 201 188 180 185 193 199 189 180 183 189 189 184 199 233 229 124 108 92 95 100 101 103 101 100 100 99 96 96 97 97 98 99 101 102 101
205 190 191 204 207 213 214 217 219 224 240 255 245 238 268 273 270 260 243 251 247 248 266 238 236 244 230 208 208 233 237 203 193 207 198 189 192 193 190 187 185 179 174 180 185 186 186 182 180 191 198 187 188 192 199 203 191 189 192 201 206 187 186 225 242 272 189 112 97 103 101 101 102 101 101 101 102 102 103 100 101 103 103 106 106
217 200 199 213 216 232 227 228 231 219 244 271 271 254 249 252 264 260 243 257 249 244 252 231 232 258 266 240 206 214 222 208 207 214 202 195 197 201 200 197 197 191 180 179 187 193 190 185 184 191 194 186 191 197 203 207 200 197 192 208 230 203 185 208 241 266 241 194 121 108 102 100 100 102 101 102 107 108 109 107 104 106 110 113 112
213 202 204 211 216 242 238 241 244 228 229 237 240 237 230 237 251 244 233 245 249 253 250 239 231 252 275 273 241 222 218 213 212 214 209 202 200 202 203 203 201 195 189 183 184 194 194 189 189 190 190 183 188 196 204 213 210 205 193 201 231 218 194 194 233 261 257 224 196 149 116 104 99 98 100 102 108 110 114 114 109 109 115 119 119
209 197 201 216 219 224 220 225 238 239 231 219 220 227 226 234 244 236 235 241 241 247 245 245 240 241 276 288 271 266 256 237 210 204 209 208 204 201 202 205 205 198 194 191 189 194 194 193 195 195 190 185 191 193 199 214 212 206 199 198 212 220 209 196 212 242 255 253 238 220 185 132 115 101 101 103 109 120 123 124 121 119 120 124 125
218 203 203 222 226 223 219 215 229 242 237 219 214 219 223 227 233 235 244 249 243 232 226 247 246 245 286 309 300 302 296 299 248 211 214 212 211 209 202 201 203 200 197 197 197 199 200 198 198 197 189 189 197 192 197 214 214 201 194 192 202 217 217 209 205 217 236 246 252 240 220 181 154 122 110 108 112 129 141 146 144 140 138 138 137
237 224 226 234 229 236 242 232 231 232 227 224 218 215 224 224 223 230 241 248 250 247 202 262 264 260 291 306 314 323 308 309 313 281 270 244 222 215 207 203 201 199 198 201 204 204 205 204 203 199 192 192 199 199 200 209 209 207 200 188 194 208 216 218 213 209 219 235 246 242 225 203 180 160 140 125 125 141 156 170 173 168 162 157 155
350 319 295 277 233 253 262 245 239 227 220 227 226 222 230 225 216 223 236 241 245 269 319 196 251 296 296 289 299 326 326 309 302 290 288 296 277 237 216 212 208 202 199 201 211 214 209 207 207 205 202 200 202 205 208 207 205 209 210 201 208 227 235 223 217 213 213 223 235 238 241 231 202 184 191 177 163 164 175 187 190 191 186 181 179
20 14 18 28 57 32 25 322 258 239 228 231 227 222 231 224 213 223 239 242 241 256 261 231 233 234 286 306 301 315 335 327 308 299 285 288 300 296 258 231 218 214 211 208 216 223 217 208 207 209 210 211 211 211 212 212 209 207 205 204 214 232 242 232 223 223 218 216 223 230 244 255 244 228 243 233 211 200 197 201 204 206 205 200 197
35 29 36 40 54 57 45 37 19 319 259 249 235 219 232 233 219 227 242 244 245 251 242 249 251 179 173 284 279 285 315 322 309 309 305 290 291 303 299 269 240 227 220 216 218 221 221 213 209 212 214 217 219 219 219 219 216 210 206 205 211 225 237 242 243 242 230 219 219 224 236 252 257 257 265 264 249 236 220 215 215 216 221 217 211
47 54 62 50 50 57 55 51 37 17 6 288 261 213 233 237 217 222 239 241 246 256 236 231 238 154 152 227 258 264 285 294 286 289 304 301 291 294 295 289 280 255 225 218 221 221 218 215 215 218 220 223 225 224 222 224 223 218 216 213 211 218 232 244 250 255 243 225 221 225 232 244 255 258 259 263 262 257 247 234 226 223 227 225 221
68 75 80 69 53 49 57 60 51 37 46 63 47 18 242 251 239 225 232 235 235 246 233 216 194 126 106 74 272 265 269 275 275 278 287 290 290 289 285 286 292 287 255 233 232 230 223 219 222 222 222 224 227 228 227 225 225 223 223 224 221 218 224 242 254 255 250 240 233 236 238 244 253 258 257 261 260 258 257 251 242 233 229 228 225
74 71 73 74 57 48 56 54 53 52 53 68 63 50 63 53 320 249 223 212 222 245 240 223 187 133 100 94 196 259 253 248 262 276 279 274 278 280 272 268 278 286 290 271 249 245 237 228 228 226 224 226 229 234 233 228 227 226 226 229 229 223 219 231 248 255 253 251 249 250 251 251 255 258 258 261 260 254 250 246 244 242 235 230 226
61 64 71 73 56 56 61 42 46 47 33 68 72 52 50 57 57 75 124 139 138 257 246 227 203 171 121 111 110 43 255 189 233 260 257 256 266 278 267 251 255 271 285 292 288 281 262 239 234 233 227 228 234 238 236 234 235 233 233 234 235 233 224 221 233 246 250 252 255 255 256 257 256 257 256 257 258 254 248 243 242 242 238 233 229
62 66 70 70 64 61 55 43 51 44 29 49 66 47 37 46 50 63 85 104 103 109 108 130 193 193 186 163 116 108 216 124 176 240 235 239 248 306 331 260 253 265 272 279 291 304 295 257 243 242 228 222 228 233 235 237 239 240 240 237 235 237 237 231 230 236 241 246 254 256 256 257 258 258 256 254 255 254 249 244 242 241 237 233 232
67 70 70 68 76 64 50 55 60 56 41 39 45 41 37 31 33 47 64 80 90 101 99 86 140 196 204 200 199 224 240 358 134 226 265 259 239 170 136 223 263 269 266 269 280 291 298 292 279 270 263 241 229 238 247 243 244 249 248 244 240 239 240 238 236 236 237 238 245 252 254 256 257 259 258 253 253 254 249 240 236 239 237 231 229
75 77 75 71 77 71 60 60 60 71 62 44 41 43 41 29 27 39 47 55 70 88 112 119 123 150 171 164 206 233 218 242 85 89 315 276 301 17 181 231 255 270 271 266 272 281 291 301 293 276 271 265 250 255 261 256 258 259 254 254 252 247 243 241 240 240 239 236 237 243 249 254 256 257 258 255 253 254 250 241 234 234 234 229 225
86 85 84 82 83 78 67 60 58 73 78 63 53 51 52 45 38 42 43 45 47 54 86 107 110 120 146 154 114 150 181 180 123 127 166 243 301 10 12 330 285 262 265 264 267 279 285 280 272 261 258 260 254 258 264 262 265 265 266 267 257 249 248 249 249 246 243 240 237 238 242 247 252 254 256 256 253 253 252 245 236 230 228 227 223
95 94 94 90 87 81 72 60 55 65 76 73 64 59 60 57 54 52 47 45 43 45 54 54 65 82 96 182 178 163 171 183 190 167 173 224 271 309 309 328 314 268 259 260 260 268 272 262 255 255 255 257 261 266 267 264 267 271 277 277 262 253 253 253 258 257 250 245 241 240 240 240 243 246 251 253 251 252 252 250 243 231 226 227 226
106 106 104 99 93 86 80 73 65 67 74 73 68 65 64 61 60 59 57 57 51 51 56 52 55 57 35 29 35 99 154 174 201 188 202 218 223 260 258 255 256 257 255 256 261 260 266 272 269 266 264 264 269 273 272 272 278 279 279 276 263 259 259 252 255 260 256 251 246 244 242 240 239 239 245 250 251 251 251 253 249 235 226 228 229
121 119 115 111 108 99 91 86 81 79 78 78 77 72 67 64 62 59 60 62 59 57 60 57 56 53 44 38 34 37 39 34 35 30 16 360 326 287 288 273 243 250 257 252 274 274 272 282 282 277 274 269 270 275 276 276 276 273 275 276 268 267 268 253 247 252 254 255 252 248 244 241 240 239 241 246 250 252 251 251 251 239 227 228 232
137 135 133 127 121 112 107 99 95 92 86 86 90 87 84 79 73 67 65 66 67 69 69 65 63 59 57 47 39 44 39 35 35 31 27 13 352 318 328 333 287 281 304 251 277 285 272 277 287 286 278 270 270 271 271 267 260 260 266 274 270 267 271 264 258 260 262 264 263 258 251 242 237 236 237 241 247 250 249 248 247 240 231 230 231
157 156 153 146 143 126 118 116 109 109 109 105 101 98 96 94 89 81 77 74 69 70 69 65 66 63 60 50 46 51 45 39 35 33 35 14 0 347 340 347 342 328 323 278 263 268 265 273 293 295 274 275 281 271 260 250 248 253 256 262 266 261 269 272 272 275 274 272 269 263 258 250 242 237 234 235 240 245 246 244 244 243 240 237 232
171 173 170 160 158 147 139 146 133 122 122 119 118 118 113 107 105 99 91 86 81 79 77 71 69 67 68 63 56 57 49 40 32 23 33 32 23 19 357 345 340 326 315 301 278 250 239 251 256 264 256 260 276 274 261 247 243 257 264 267 272 269 271 274 275 281 283 278 273 265 260 257 251 244 238 234 233 237 242 244 245 245 245 244 239
179 182 182 173 169 167 164 164 154 145 140 131 131 127 122 123 123 116 109 107 105 93 83 82 79 75 80 80 70 62 56 50 41 28 35 42 29 21 14 353 343 329 320 325 317 316 352 292 226 219 253 254 262 267 258 242 239 257 271 271 277 277 278 280 280 283 286 284 278 270 264 260 257 253 247 241 235 233 235 240 243 245 247 246 245
184 187 188 181 179 179 175 178 172 166 161 146 146 145 137 141 140 131 128 120 108 96 86 82 82 84 86 85 81 73 62 51 44 42 41 33 25 20 15 10 1 338 327 337 335 352 6 1 344 355 10 22 28 17 350 247 236 257 302 304 307 302 292 286 280 278 281 282 280 277 272 267 262 258 254 249 243 237 234 235 238 241 245 246 246
187 189 194 188 188 190 184 188 185 178 181 167 164 171 157 157 162 149 146 140 124 121 117 97 90 95 85 83 93 84 67 53 32 43 48 36 36 25 0 358 6 331 327 338 332 334 347 352 352 350 354 4 16 17 16 5 323 328 327 312 305 297 289 286 281 279 280 279 279 279 278 275 271 266 260 255 250 244 240 237 237 238 240 243 245
197 194 199 194 194 197 193 197 195 188 190 181 178 185 170 166 174 165 162 160 153 147 138 128 123 112 91 92 97 75 58 54 33 38 43 36 33 16 359 359 356 353 354 333 318 323 332 339 341 338 337 339 343 341 338 331 323 322 317 304 295 289 286 286 285 283 283 281 279 277 276 275 275 272 267 262 257 252 247 242 240 240 240 240 242
211 205 203 201 203 204 201 203 202 198 197 189 188 190 180 180 184 179 180 176 166 166 162 158 153 133 117 108 95 78 65 54 40 34 20 13 18 15 11 4 354 355 349 326 296 308 322 327 327 327 329 329 329 326 319 313 308 307 307 304 299 293 285 281 281 282 282 281 280 279 277 275 274 271 268 266 263 259 254 250 246 244 243 243 243
217 216 211 208 211 211 209 210 208 205 202 197 196 195 188 192 196 192 191 185 176 180 181 173 167 163 159 144 133 139 87 62 55 37 360 337 331 338 349 351 337 320 310 305 286 293 307 312 315 319 320 317 316 316 313 309 301 295 294 293 292 290 284 281 281 281 281 280 279 278 276 275 271 267 265 265 264 262 259 255 252 249 247 246 245
222 221 218 215 218 219 216 214 214 211 207 202 200 199 196 198 200 199 199 192 186 189 186 178 176 180 179 170 180 202 117 71 55 353 341 329 310 302 288 285 301 287 285 294 291 294 301 303 306 309 309 307 306 303 301 298 296 295 294 291 288 286 285 285 285 283 283 281 280 278 276 273 268 262 261 264 265 264 260 257 255 254 252 250 248
234 230 225 222 223 225 223 221 220 217 212 209 206 203 203 205 203 203 204 197 194 197 193 187 186 185 184 185 181 180 174 164 259 323 337 342 342 328 317 317 316 311 306 304 305 305 302 303 304 302 300 300 300 300 298 296 296 297 296 293 290 286 285 286 286 285 285 284 284 283 280 277 270 261 258 261 264 266 264 262 258 256 256 255 253
238 239 233 229 227 227 227 225 224 222 217 214 212 208 208 211 210 207 207 202 200 203 199 193 194 190 187 190 188 183 191 202 221 258 299 305 320 326 323 322 315 306 298 293 291 288 287 292 296 298 299 301 300 299 297 294 294 293 292 291 288 286 285 284 285 286 286 285 284 284 284 281 272 262 258 259 262 266 268 268 266 263 260 258 256
236 240 238 235 231 231 231 228 226 226 222 218 216 213 212 216 218 214 211 208 206 210 205 199 200 196 188 188 190 193 198 196 204 229 247 262 277 301 311 311 308 306 306 300 291 286 286 291 294 296 298 298 297 297 296 295 293 292 293 293 291 289 288 286 285 286 285 283 283 285 285 283 275 266 261 261 262 264 266 268 269 269 267 264 260
244 244 243 242 238 235 234 231 231 231 229 226 221 215 213 217 222 222 219 214 212 215 212 205 205 200 188 187 192 193 195 194 201 217 223 229 253 281 295 298 300 303 303 301 298 295 294 294 294 294 295 294 294 293 293 294 293 291 290 289 288 289 289 288 285 284 285 286 288 291 291 286 280 273 268 267 267 266 266 267 269 270 270 268 265
247 249 248 253 263 263 256 250 247 242 236 233 228 221 217 219 222 225 225 222 218 218 216 208 207 201 188 188 194 195 196 200 203 208 219 233 250 268 282 291 294 297 297 296 295 292 290 289 289 290 291 291 290 289 289 291 291 291 291 290 289 288 286 286 285 284 286 288 287 288 292 292 287 283 278 274 272 270 269 268 268 270 270 269 267
240 251 254 256 266 269 263 258 258 257 251 243 237 233 226 222 222 223 226 227 224 222 218 210 207 202 194 192 196 198 200 203 209 215 222 226 233 252 270 281 286 291 294 294 294 291 290 289 288 288 288 289 288 286 288 289 286 287 289 288 287 287 287 287 289 291 290 287 282 280 284 287 287 285 282 278 275 273 273 272 270 267 267 268 267
242 252 255 249 246 247 245 242 246 259 269 262 250 246 239 229 224 221 221 223 224 223 218 211 207 201 197 197 197 199 204 209 214 214 210 216 239 260 266 269 275 285 292 293 293 291 289 287 286 286 288 290 289 289 290 289 284 284 288 289 292 297 299 295 294 295 294 291 288 285 285 286 286 285 282 280 277 275 273 273 274 272 268 267 267
251 253 254 250 248 247 245 243 243 251 263 256 245 246 248 238 225 220 219 217 218 220 215 209 206 200 196 196 198 204 211 215 215 213 219 242 268 276 276 274 273 276 284 288 289 291 292 291 290 292 293 292 291 295 300 300 298 298 300 300 299 298 298 295 291 291 291 290 288 285 284 285 286 286 284 282 282 281 277 273 271 272 272 270 269
260 257 254 251 251 250 249 249 249 246 245 244 239 242 249 243 230 227 222 212 209 213 211 206 202 200 198 199 204 213 219 224 230 236 248 263 273 276 276 278 276 274 276 280 282 286 291 292 292 295 296 293 293 298 304 305 306 306 305 304 299 293 291 288 286 287 287 286 287 289 290 289 289 292 292 288 286 286 287 284 279 274 271 269 269
264 262 259 255 254 257 256 254 253 250 247 247 244 244 244 238 234 236 223 204 200 206 207 204 200 200 200 201 212 223 229 236 246 257 271 278 281 284 286 285 282 276 274 274 275 278 280 282 284 287 289 290 293 298 303 305 308 312 314 315 313 308 301 293 289 291 289 291 301 302 297 293 292 293 292 289 286 285 286 291 293 288 279 272 269
254 254 256 256 254 256 257 255 253 251 248 246 245 242 237 233 239 242 220 195 194 200 201 199 196 198 202 206 216 225 230 238 248 262 277 283 285 288 291 290 286 280 274 271 271 272 272 272 274 275 278 283 290 294 297 301 308 313 314 313 314 314 311 304 301 301 295 299 311 310 300 293 292 292 290 287 286 285 283 284 287 289 288 284 277
263 250 247 249 250 249 251 252 252 251 247 244 244 242 235 233 236 231 211 190 186 190 194 194 192 198 205 209 216 223 231 244 254 264 272 277 283 291 295 291 285 283 280 276 273 272 270 267 265 266 270 276 282 286 287 292 301 306 308 307 307 310 312 309 305 302 297 299 311 313 303 295 294 292 289 288 286 285 283 282 281 281 284 286 284
279 268 258 252 248 248 249 250 254 257 250 243 247 245 236 230 223 213 204 191 183 185 192 194 196 203 208 211 217 228 242 254 261 265 266 267 273 286 296 296 291 290 288 286 284 280 274 268 264 264 268 271 273 277 281 286 291 294 298 302 303 303 304 301 296 295 292 292 300 303 295 290 293 289 286 286 286 285 283 283 281 279 279 280 280
278 279 275 267 259 253 249 248 252 257 252 242 241 240 233 225 217 207 198 186 184 188 193 196 199 205 213 220 231 241 252 260 262 261 262 262 264 273 284 290 289 287 285 286 287 286 283 278 274 272 272 273 274 274 275 276 276 279 286 291 294 296 296 293 290 289 288 287 289 289 285 287 291 286 283 286 288 286 284 283 282 281 280 278 276
273 275 276 274 270 262 254 249 251 254 250 239 234 232 226 217 208 201 189 178 179 185 191 200 207 213 223 233 241 249 258 263 263 263 264 266 271 279 287 288 286 284 283 284 283 280 281 282 281 280 279 277 276 274 273 274 277 283 288 287 287 287 287 286 284 283 283 283 281 277 277 282 285 282 282 285 286 286 285 285 284 283 282 279 276
272 272 273 272 271 267 259 250 246 245 240 229 221 215 207 200 193 187 178 174 177 186 201 215 220 226 237 243 247 252 258 263 268 271 272 274 277 282 286 285 285 285 286 288 287 284 282 282 282 283 283 282 280 278 278 278 280 284 284 281 281 282 279 276 275 275 276 277 277 277 278 281 284 283 284 285 285 284 284 284 285 284 282 279 276
274 275 278 278 277 274 260 240 231 231 222 206 196 190 188 189 186 179 173 175 182 200 219 223 225 236 252 260 260 261 262 267 272 275 275 276 277 278 279 282 284 286 288 292 293 291 288 284 283 281 280 280 282 283 284 283 281 279 274 271 274 276 272 270 272 274 273 270 270 275 278 280 282 284 286 289 287 284 282 282 283 282 278 273 271
277 277 280 281 282 279 238 208 208 211 195 178 177 180 181 182 179 170 162 163 168 183 209 221 238 260 276 291 293 286 274 269 271 270 268 269 270 272 276 282 286 288 290 292 291 291 291 289 288 286 284 285 286 287 287 286 284 281 273 270 271 269 265 267 271 275 274 269 266 266 270 277 283 286 291 297 294 291 292 290 288 287 277 264 256